TimeEDT,TemperatureF,Dew PointF,Humidity,Sea Level PressureIn,VisibilityMPH,Wind Direction,Wind SpeedMPH,Gust SpeedMPH,PrecipitationIn,Events,Conditions,WindDirDegrees,DateUTC
12:53 AM,60.1,57.9,93,29.89,9.0,Calm,Calm,-,N/A,,Clear,0,2013-05-23 04:53:00
1:18 AM,59.0,57.2,94,29.90,2.5,Calm,Calm,-,N/A,,Clear,0,2013-05-23 05:18:00
1:27 AM,59.0,57.2,94,29.90,4.0,Calm,Calm,-,N/A,,Clear,0,2013-05-23 05:27:00
1:53 AM,61.0,57.9,90,29.86,10.0,SSW,3.5,-,N/A,,Clear,200,2013-05-23 05:53:00
2:53 AM,62.1,59.0,90,29.84,10.0,SSW,3.5,-,N/A,,Clear,200,2013-05-23 06:53:00
3:53 AM,62.1,59.0,90,29.83,10.0,South,4.6,-,N/A,,Clear,190,2013-05-23 07:53:00
4:53 AM,62.1,59.0,90,29.85,10.0,WSW,5.8,-,N/A,,Clear,240,2013-05-23 08:53:00
5:53 AM,62.1,60.1,93,29.86,8.0,SW,6.9,-,N/A,,Clear,230,2013-05-23 09:53:00
6:53 AM,64.0,60.1,87,29.87,10.0,WSW,6.9,-,N/A,,Clear,250,2013-05-23 10:53:00
7:53 AM,64.9,61.0,87,29.87,10.0,SW,9.2,-,N/A,,Mostly Cloudy,230,2013-05-23 11:53:00
8:53 AM,66.0,61.0,84,29.87,10.0,SW,11.5,-,0.00,,Overcast,220,2013-05-23 12:53:00
9:07 AM,66.2,62.6,88,29.91,10.0,WSW,8.1,-,N/A,,Overcast,240,2013-05-23 13:07:00
9:35 AM,64.4,62.6,94,29.91,6.0,SW,12.7,-,N/A,,Overcast,220,2013-05-23 13:35:00
9:53 AM,64.9,61.0,87,29.88,5.0,SW,6.9,-,N/A,,Overcast,220,2013-05-23 13:53:00
10:27 AM,64.4,60.8,88,29.92,6.0,SW,9.2,-,N/A,,Overcast,220,2013-05-23 14:27:00
10:53 AM,64.9,61.0,87,29.89,6.0,SW,10.4,-,N/A,,Overcast,230,2013-05-23 14:53:00
11:53 AM,66.0,61.0,84,29.89,8.0,WSW,11.5,-,0.00,,Overcast,240,2013-05-23 15:53:00
12:44 PM,69.8,62.6,78,29.90,10.0,WSW,9.2,18.4,N/A,,Mostly Cloudy,240,2013-05-23 16:44:00
12:53 PM,69.1,61.0,75,29.88,10.0,WSW,9.2,-,N/A,,Mostly Cloudy,240,2013-05-23 16:53:00
1:29 PM,69.8,60.8,73,29.88,10.0,SW,8.1,18.4,N/A,,Mostly Cloudy,230,2013-05-23 17:29:00
1:37 PM,69.8,60.8,73,29.88,10.0,West,8.1,-,N/A,,Overcast,260,2013-05-23 17:37:00
1:51 PM,69.8,60.8,73,29.87,10.0,West,9.2,-,N/A,,Mostly Cloudy,260,2013-05-23 17:51:00
1:53 PM,70.0,60.1,71,29.85,10.0,SW,12.7,17.3,N/A,,Overcast,230,2013-05-23 17:53:00
2:00 PM,69.8,60.8,73,29.87,10.0,WSW,8.1,17.3,N/A,,Overcast,250,2013-05-23 18:00:00
2:53 PM,68.0,61.0,78,29.84,5.0,SW,6.9,-,0.02,Rain,Light Rain,220,2013-05-23 18:53:00
3:53 PM,68.0,64.0,87,29.82,5.0,SSW,8.1,-,0.01,,Mostly Cloudy,210,2013-05-23 19:53:00
4:08 PM,68.0,64.4,88,29.84,5.0,SSW,8.1,-,N/A,,Mostly Cloudy,210,2013-05-23 20:08:00
4:21 PM,69.8,64.4,83,29.84,6.0,SSW,12.7,16.1,N/A,,Haze,210,2013-05-23 20:21:00
4:53 PM,70.0,63.0,78,29.81,9.0,SSW,11.5,17.3,N/A,,Mostly Cloudy,210,2013-05-23 20:53:00
5:37 PM,69.8,62.6,78,29.82,10.0,SSW,11.5,-,N/A,,Mostly Cloudy,200,2013-05-23 21:37:00
5:53 PM,68.0,62.1,81,29.81,9.0,SSW,9.2,-,N/A,,Scattered Clouds,210,2013-05-23 21:53:00
6:53 PM,68.0,63.0,84,29.79,6.0,South,5.8,-,N/A,,Haze,170,2013-05-23 22:53:00
7:16 PM,66.2,62.6,88,29.82,5.0,South,6.9,-,N/A,,Overcast,170,2013-05-23 23:16:00
7:53 PM,66.0,63.0,90,29.80,5.0,SSW,6.9,-,N/A,,Mostly Cloudy,200,2013-05-23 23:53:00
8:16 PM,66.2,62.6,88,29.83,6.0,South,5.8,-,N/A,,Mostly Cloudy,180,2013-05-24 00:16:00
8:53 PM,64.9,63.0,93,29.79,7.0,South,6.9,-,N/A,,Mostly Cloudy,190,2013-05-24 00:53:00
9:00 PM,64.4,62.6,94,29.80,7.0,South,5.8,-,N/A,,Mostly Cloudy,180,2013-05-24 01:00:00
9:08 PM,64.4,62.6,94,29.80,6.0,SSE,4.6,-,N/A,,Mostly Cloudy,150,2013-05-24 01:08:00
9:15 PM,64.4,62.6,94,29.79,6.0,SSE,5.8,-,N/A,,Overcast,150,2013-05-24 01:15:00
9:24 PM,64.4,62.6,94,29.80,5.0,SE,4.6,-,0.00,Rain,Light Rain,140,2013-05-24 01:24:00
9:53 PM,64.9,64.0,97,29.78,3.0,SSE,5.8,-,0.01,Rain,Light Rain,160,2013-05-24 01:53:00
10:00 PM,64.4,64.4,100,29.79,1.8,South,10.4,16.1,0.12,Rain,Heavy Rain,180,2013-05-24 02:00:00
10:09 PM,64.4,62.6,94,29.79,3.0,SSW,5.8,-,0.13,Rain,Light Rain,200,2013-05-24 02:09:00
10:18 PM,60.8,57.2,88,29.81,2.5,West,12.7,23.0,0.18,Rain,Rain,280,2013-05-24 02:18:00
10:23 PM,60.8,57.2,88,29.82,1.8,NW,9.2,-,0.24,Rain,Heavy Rain,310,2013-05-24 02:23:00
10:51 PM,59.0,57.2,94,29.80,1.8,WNW,10.4,-,0.50,Rain,Heavy Rain,300,2013-05-24 02:51:00
10:53 PM,59.0,57.0,93,29.79,1.8,WNW,10.4,-,0.53,Rain,Heavy Rain,300,2013-05-24 02:53:00
11:09 PM,59.0,57.2,94,29.79,3.0,WNW,9.2,-,0.10,Rain,Rain,290,2013-05-24 03:09:00
11:53 PM,59.0,57.0,93,29.76,10.0,Calm,Calm,-,0.13,,Overcast,0,2013-05-24 03:53:00